Simultaneous Nadir Overpasses (SNOs) Predictions

Prediction of SNOs between LANDSAT-8 and METOP-A Satellite Orbit:

Table of predicted SNOs for the next 14.0 days since TLE Epoch: 10/9/2021
Index Date (LANDSAT-8) Time (LANDSAT-8) Lat,Lon (LANDSAT-8) SZA (LANDSAT-8 ) Date (METOP-A) Time (METOP-A) Lat,Lon (METOP-A) SZA (METOP-A ) Distance(km) Time Diff (sec)
1 10/10/2021 07:31:40 -81.32, -69.57 89.27 10/10/2021 07:30:56 -81.31, -69.47 89.28 2.01 44
2 10/10/2021 08:21:07 81.31, 97.85 90.72 10/10/2021 08:21:37 81.31, 97.77 90.73 1.36 30
3 10/13/2021 03:05:56 -81.32, -3.17 88.20 10/13/2021 03:05:16 -81.31, -3.20 88.22 0.77 40
4 10/13/2021 03:55:23 81.31, 164.22 91.78 10/13/2021 03:55:56 81.30, 164.41 91.82 3.29 33
5 10/15/2021 22:40:12 -81.31, 63.18 87.16 10/15/2021 22:39:36 -81.32, 63.05 87.18 2.08 36
6 10/15/2021 23:29:39 81.30,-129.46 92.82 10/15/2021 23:30:16 81.31,-129.35 92.86 2.04 37
7 10/18/2021 18:14:27 -81.31, 129.47 86.14 10/18/2021 18:13:54 -81.31, 129.66 86.14 3.18 33
8 10/18/2021 19:03:53 81.31, -62.81 93.89 10/18/2021 19:04:34 81.30, -62.76 93.90 1.79 41
9 10/21/2021 13:48:43 -81.30,-164.29 85.15 10/21/2021 13:48:14 -81.31,-164.14 85.14 3.07 29



Historial Predications of SNOs between LANDSAT-8 and METOP-A
